Regional Weather Roundup
Issued by NWS Bismarck, ND

Home | Current Version | Previous Version | Text Only | Print | Product List | Glossary On
Versions: 1 2 3 4 5 6 7 8 9 10 11 12 13 14 15 16 17 18 19 20 21 22 23 24 25 26 27 28 29 30 31 32 33 34 35 36 37 38 39 40 41 42 43 44 45 46 47 48 49 50
000
ASUS43 KBIS 240310
RWRBIS

NWR BROADCAST TEXT
NATIONAL WEATHER SERVICE BISMARCK ND
1000 PM CDT SAT JUL 23 2016

NOTE: "FAIR" INDICATES FEW OR NO CLOUDS BELOW 12,000 FEET WITH NO
SIGNIFICANT WEATHER AND/OR OBSTRUCTIONS TO VISIBILITY.


CITY           SKY/WX    TMP DP  RH WIND       PRES   REMARKS
WILLISTON      CLEAR     68  56  65 NW8       29.92R
MINOT          CLEAR     72  57  59 W15       29.82R
MINOT AFB      CLEAR     67  58  73 W14       29.82R
BISMARCK       CLEAR     77  54  44 NW12      29.86R
DICKINSON      CLEAR     67  51  56 NW8       29.94R
GARRISON         N/A     65  58  78 NW10      29.87R
HETTINGER ARPT CLEAR     70  45  40 NW9       29.96R
JAMESTOWN      CLEAR     68  61  78 W7        29.79R
CARRINGTON     FAIR      68  61  77 W9        29.81S
HAZEN          FAIR      70  55  60 NW8       29.90R
LINTON         FAIR      66  63  88 SW5       29.87R
MANDAN         FAIR      72  55  56 NW8       29.88R
OAKES            N/A    N/A N/A N/A MISG        N/A
STANLEY        FAIR      64  61  88 NW9       29.92R
WATFORD CITY     N/A    N/A N/A N/A MISG        N/A
$$

CITY           SKY/WX    TMP DP  RH WIND       PRES   REMARKS
GRAND FORKS    PTCLDY    68  66  93 SW6       29.70S
GRAND FORKS AF CLEAR     69  69  99 W7        29.72R
DEVILS LAKE    CLEAR     68  61  78 W9        29.76R
FARGO          CLOUDY    77  73  87 NW5       29.73R
CAVALIER       FAIR      70  68  94 SW6       29.69S
GRAFTON        MOCLDY    70  70 100 SW7       29.72R
GWINNER        FAIR      75  70  83 W9        29.78R
LANGDON        FAIR      68  68 100 W9        29.74R
ROLLA            N/A     66  57  72 W13G20    29.76S
$$

CITY           SKY/WX    TMP DP  RH WIND       PRES   REMARKS
ABERDEEN       CLEAR     75  67  76 NW10      29.81R
MOBRIDGE       CLEAR     68  59  73 N6        29.84R
BUFFALO          N/A     74  42  31 N13       29.93R
RAPID CITY     CLEAR     70  43  37 N8        29.99R
GLASGOW        CLEAR     68  50  52 VRB7      29.96S
SIDNEY         CLEAR     70  52  52 NW9       29.96R
WOLF POINT     CLEAR     70  50  49 CALM      29.97R
GLENDIVE       PTCLDY    71  51  49 N14       29.99R
MILES CITY     CLEAR     75  44  33 NW6       29.99R
BAKER          CLEAR     70  50  49 NW8       30.00R
$$

CITY           SKY/WX    TMP DP  RH WIND       PRES   REMARKS
BILLINGS       MOCLDY    76  43  30 NE10      30.05R
GREAT FALLS    CLOUDY    73  37  27 N6        30.04R
REGINA         PTCLDY    64  57  77 W12       29.87R
ESTEVAN        PTCLDY    64  59  82 W9        29.86R
$$





USA.gov is the U.S. government's official web portal to all federal, state and local government web resources and services.